User: anonymous   Login
Location: Montague
(41.3030°N, 74.7940°W)
Time: 16:14:42
(UTC-04:00)
Language:

Cosmos 1461 - Orbit

View from above orbital plane
View from above orbital plane
View from above satellite
View from above satellite

Ground track
Ground track

The orbit data is extracted from the following two-line orbital elements,

1 14064U 83044A   16238.73639414  .00000821  00000-0  70951-4 0  9998
2 14064  65.0026 118.5937 0100019 172.7644 187.5446 14.93139377679231
Epoch (UTC): 25 August 2016 17:40:24
Eccentricity: 0.0100019
inclination: 65.0026°
perigee height: 518 km
apogee height: 658 km
right ascension of ascending node: 118.5937°
argument of perigee: 172.7644°
revolutions per day: 14.93139377
mean anomaly at epoch: 187.5446°
orbit number at epoch: 67923

The dashed part of the orbit path shows where the satellite is in the earth's shadow,  

DLR